STARLINK-35669, 66396

Orbit data source: Space-Track

STARLINK-35669, 66396 is a payload satellite owned by SpaceX/Seattle (US) in LEO that was launched on Sat, 08 Nov 2025 UTC via an FALCON 9 launch vehicle from the Air Force Eastern Test Range (AFETR). Payload-class satellites include a variety of spacecraft equipped with specific instruments for various scientific and technological missions. These include communications satellites like Starlink; space stations such as the ISS; scientific satellites like the Hubble; Earth observation satellites from companies like Planet Labs, Umbra, and HawkEye 360; GPS; miniature CubeSats for education and research; and military/defense satellites.

Loading next visibility...
Identifier
66396, 2025-257S
Orbit
LEO
Country
Flag of USUS
Related business
Manufacturer
SpaceX/Seattle
Mission
Operational Commercial Communications
Bus & Motor
STARLINK V2MO, Unknown motor
Mass
575 kg wet, ~530 kg dry
Launch date (UTC)
2025-11-08 (7 months ago)
Launch vehicle
FALCON 9
Launch site
Air Force Eastern Test Range (AFETR)
Object type
Payload
Rocket body
Debris
Shape & HBR
Box + 2 Pan, 17.7 m
Radar Cross Section
36.964 m², Large (>1 m²)

Expand to show TLE details & history
Last TLE update: 14 hours ago

TLE from 14 hours ago
0 STARLINK-35669
1 66396U 25257S   26171.26216985  .00015226  00000-0  46059-3 0  9990
2 66396  53.1587  98.7523 0001397  96.1317 263.9845 15.34418527 35467
Epoch: 2026-06-20T06:17Z
TLE epoch observation values (Epoch: 2026-06-20T06:17:31.475Z)
Latitude
0.00002°
Longitude
95.89185°
Altitude
463.65 km
Speed
7.636 km/s
True Right ascension
06h 35m 00s
True Declination
0° 00' 00"
Sunlit
Object was in daylight at epoch
Visualization orbit readout
Latitude
Unknown
Longitude
Unknown
Altitude
Unknown
Speed
Unknown
Apparent Right ascension
Unknown
Apparent Declination
Unknown
Sunlit
N/A
Visualization observer readout
Local Sidereal Time
07:15:36
Azimuth
Unknown
Elevation
Unknown
Doppler factor
Unknown
Orbital elements
Apogee altitude
463.861 km
Perigee altitude
461.95 km
Semi-major axis
6,841.042 km
Eccentricity
0.00014
Inclination
53.1587°
RAAN
98.7523°
Arg. of periapsis
96.1317°
True anomaly
263.96858°
Mean anomaly
263.9845°
Eccentric anomaly
263.97654°
Mean motion
3.83583 °/min
Orbital period
93.85 mins
BSTAR
0.00046059
Loading maneuver chart data...
Computing Atmospheric mass density...
Loading historical data...
Loading historical data...
Loading historical data...
Loading historical data...
Loading historical data...
Loading historical data...
Loading historical data...

Documentation

Showing up to 5 results
|